Arden, NC

12:18 AM EST on December 08, 2016 (GMT -0500)
Asheville Regional

Weather History for KAVL - September, 2010

Change the Weather History Date:

Tuesday, September 7, 2010

  Actual Average Record
Temperature  
Mean Temperature 69 °F 69 °F  
Max Temperature 86 °F 80 °F 95 °F (1925)
Min Temperature 52 °F 59 °F 42 °F (1924)
Degree Days  
Heating Degree Days 0 0  
Month to date heating degree days 2 0  
Since 1 July heating degree days 2 2  
Cooling Degree Days 4 5  
Month to date cooling degree days 27 38  
Year to date cooling degree days 1104 795  
Growing Degree Days 18 (Base 50)    
Moisture  
Dew Point 59 °F    
Average Humidity 67    
Maximum Humidity 100    
Minimum Humidity 34    
Precipitation  
Precipitation 0.00 in 0.14 in 3.78 in (2004)
Month to date precipitation T 0.94  
Year to date precipitation 30.42 32.55  
Snow  
Snow 0.00 in 0.00 in 0.00 in ()
Month to date snowfall 0.0 0.0  
Since 1 July snowfall 0.0 0.0  
Since 1 September snowfall 0.0 0.0  
Snow Depth 0.00 in    
Sea Level Pressure  
Sea Level Pressure 30.21 in    
Wind  
Wind Speed 3 mph (South)    
Max Wind Speed 15 mph    
Max Gust Speed 17 mph    
Visibility 10 miles    
Events      
T = Trace of Precipitation, MM = Missing Value Source: NWS Daily Summary

Daily Weather History Graph

Daily Weather History Graph

Search for Another Location

Airport or City:

Trip Planner

Search our weather history database for the weather conditions in past years. The results will help you decide how hot, cold, wet, or windy it might be!

Date:

Astronomy

Sep. 07, 2010 Rise Set
Actual Time 7:06 AM EDT 7:48 PM EDT
Civil Twilight 6:41 AM EDT 8:14 PM EDT
Nautical Twilight 6:10 AM EDT 8:44 PM EDT
Astronomical Twilight 5:39 AM EDT 9:15 PM EDT
Moon 6:05 AM EDT (9/7) 7:07 PM EDT (9/7)
Length of Visible Light 13h 33m
Length of Day
12h 41m
Waning Crescent, 1% of the Moon is Illuminated
Sep 7
Waning Crescent
Sep 8
New
Sep 15
First Quarter
Sep 23
Full
Sep 30
Last Quarter

Hourly Weather History & Observations

Time (EDT) Temp. Heat Index Dew Point Humidity Pressure Visibility Wind Dir Wind Speed Gust Speed Precip Events Conditions
12:54 AM 59.0 °F - 55.9 °F 90% 30.23 in 10.0 mi Calm Calm - N/A   Clear
1:54 AM 57.0 °F - 55.0 °F 93% 30.23 in 10.0 mi Calm Calm - N/A   Clear
2:54 AM 55.9 °F - 55.0 °F 97% 30.22 in 10.0 mi Calm Calm - N/A   Clear
3:54 AM 55.0 °F - 54.0 °F 96% 30.23 in 10.0 mi Calm Calm - N/A   Clear
4:54 AM 54.0 °F - 52.0 °F 93% 30.24 in 9.0 mi Calm Calm - N/A   Clear
5:54 AM 52.0 °F - 51.1 °F 97% 30.24 in 9.0 mi Calm Calm - N/A   Clear
6:54 AM 53.1 °F - 52.0 °F 96% 30.25 in 10.0 mi Calm Calm - N/A   Clear
7:54 AM 55.0 °F - 53.1 °F 93% 30.26 in 10.0 mi Calm Calm - N/A   Clear
8:54 AM 59.0 °F - 55.0 °F 87% 30.27 in 10.0 mi Calm Calm - N/A   Clear
9:54 AM 64.9 °F - 55.9 °F 73% 30.27 in 10.0 mi Calm Calm - N/A   Clear
10:54 AM 72.0 °F - 61.0 °F 68% 30.26 in 10.0 mi Calm Calm - N/A   Clear
11:54 AM 77.0 °F - 63.0 °F 62% 30.25 in 10.0 mi Variable 3.5 mph - N/A   Clear
12:54 PM 81.0 °F 81.3 °F 59.0 °F 47% 30.23 in 10.0 mi SSW 3.5 mph - N/A   Clear
1:54 PM 84.0 °F 83.3 °F 57.0 °F 40% 30.20 in 10.0 mi West 4.6 mph - N/A   Partly Cloudy
2:54 PM 84.0 °F 82.5 °F 53.1 °F 34% 30.18 in 10.0 mi Variable 3.5 mph - N/A   Partly Cloudy
3:54 PM 84.0 °F 83.8 °F 59.0 °F 43% 30.17 in 10.0 mi SW 9.2 mph - N/A   Clear
4:54 PM 81.0 °F 82.5 °F 64.0 °F 56% 30.17 in 10.0 mi South 11.5 mph - N/A   Partly Cloudy
5:54 PM 80.1 °F 81.7 °F 64.0 °F 58% 30.17 in 10.0 mi South 6.9 mph - N/A   Partly Cloudy
6:54 PM 78.1 °F - 64.0 °F 62% 30.17 in 10.0 mi South 5.8 mph - N/A   Clear
7:54 PM 73.9 °F - 64.9 °F 73% 30.16 in 10.0 mi South 4.6 mph - N/A   Clear
8:54 PM 73.0 °F - 64.0 °F 73% 30.17 in 10.0 mi Calm Calm - N/A   Clear
9:54 PM 72.0 °F - 64.0 °F 76% 30.17 in 10.0 mi SE 3.5 mph - N/A   Clear
10:54 PM 69.1 °F - 64.9 °F 87% 30.17 in 9.0 mi Calm Calm - N/A   Clear
11:54 PM 69.1 °F - 64.0 °F 84% 30.15 in 9.0 mi SE 3.5 mph - N/A   Clear